ANA409 RJTT-RJSK

Flight info

Callsign ANA409
Flight time 0h 45m
Altitude 31000
Route AGRIS Y11 YTE Y32 CHOKA
Aircraft B772/H-SDE2E3FGHIJ5LORVWXY/LB1D1

Departure

Time 2026-05-06 13:34
Airport Tokyo Haneda International Airport (RJTT)

Arrival

Time 2026-05-06 14:19
Airport Akita Airport (RJSK)
Time Latitude Longitude Altitude Speed Heading
2026-05-06 13:07 35.55465 139.78876 32 ft 0 kts 329°
2026-05-06 13:19 35.55448 139.78888 30 ft 4 kts 329°
2026-05-06 13:19 35.55428 139.78902 28 ft 4 kts 324°
2026-05-06 13:20 35.55412 139.78925 29 ft 4 kts 279°
2026-05-06 13:20 35.55414 139.78957 29 ft 4 kts 251°
2026-05-06 13:20 35.55424 139.78987 28 ft 4 kts 241°
2026-05-06 13:20 35.55438 139.79016 28 ft 4 kts 230°
2026-05-06 13:21 35.55457 139.79036 29 ft 4 kts 201°
2026-05-06 13:21 35.55483 139.79042 29 ft 4 kts 176°
2026-05-06 13:21 35.55509 139.79036 29 ft 4 kts 159°
2026-05-06 13:21 35.55531 139.79024 28 ft 1 kts 150°
2026-05-06 13:22 35.55532 139.79023 28 ft 0 kts 149°
2026-05-06 13:25 35.55529 139.79025 30 ft 2 kts 149°
2026-05-06 13:25 35.55511 139.79038 30 ft 4 kts 148°
2026-05-06 13:26 35.55485 139.79074 30 ft 7 kts 115°
2026-05-06 13:26 35.55490 139.79172 30 ft 15 kts 117°
2026-05-06 13:26 35.55402 139.79242 31 ft 15 kts 149°
2026-05-06 13:26 35.55310 139.79308 31 ft 15 kts 149°
2026-05-06 13:27 35.55219 139.79373 31 ft 15 kts 149°
2026-05-06 13:27 35.55127 139.79439 32 ft 15 kts 149°
2026-05-06 13:27 35.55067 139.79482 32 ft 15 kts 149°
2026-05-06 13:27 35.54946 139.79569 30 ft 15 kts 149°
2026-05-06 13:28 35.54853 139.79632 30 ft 15 kts 150°
2026-05-06 13:28 35.54773 139.79689 29 ft 13 kts 150°
2026-05-06 13:28 35.54693 139.79745 28 ft 13 kts 150°
2026-05-06 13:28 35.54613 139.79800 29 ft 13 kts 150°
2026-05-06 13:29 35.54534 139.79857 28 ft 13 kts 149°
2026-05-06 13:29 35.54482 139.79896 27 ft 13 kts 149°
2026-05-06 13:29 35.54402 139.79952 26 ft 13 kts 150°
2026-05-06 13:29 35.54323 139.80008 31 ft 13 kts 150°
2026-05-06 13:30 35.54217 139.80082 31 ft 13 kts 150°
2026-05-06 13:30 35.54137 139.80138 27 ft 13 kts 150°
2026-05-06 13:30 35.54058 139.80195 26 ft 13 kts 150°
2026-05-06 13:30 35.53973 139.80255 28 ft 11 kts 150°
2026-05-06 13:31 35.53948 139.80273 29 ft 5 kts 149°
2026-05-06 13:31 35.53919 139.80315 30 ft 5 kts 114°
2026-05-06 13:31 35.53915 139.80341 32 ft 5 kts 92°
2026-05-06 13:31 35.53924 139.80380 34 ft 5 kts 65°
2026-05-06 13:32 35.53939 139.80417 35 ft 5 kts 62°
2026-05-06 13:32 35.53958 139.80450 37 ft 5 kts 46°
2026-05-06 13:32 35.53986 139.80474 38 ft 5 kts 28°
2026-05-06 13:32 35.54018 139.80478 37 ft 5 kts 346°
2026-05-06 13:33 35.54038 139.80466 36 ft 0 kts 330°
2026-05-06 13:33 35.54039 139.80465 37 ft 0 kts 330°
2026-05-06 13:33 35.54042 139.80463 37 ft 1 kts 330°
2026-05-06 13:33 35.54048 139.80459 37 ft 3 kts 330°
2026-05-06 13:34 35.54189 139.80357 33 ft 60 kts 329°
2026-05-06 13:34 35.54830 139.79903 33 ft 150 kts 330°
2026-05-06 13:34 35.55871 139.79181 658 ft 167 kts 332°
2026-05-06 13:34 35.56893 139.78490 1711 ft 176 kts 319°
2026-05-06 13:35 35.57971 139.77720 2475 ft 190 kts 343°
2026-05-06 13:35 35.59278 139.77993 3016 ft 199 kts 36°
2026-05-06 13:35 35.60051 139.79363 3445 ft 203 kts 79°
2026-05-06 13:35 35.60444 139.81133 3680 ft 229 kts 74°
2026-05-06 13:36 35.61022 139.83064 3861 ft 257 kts 74°
2026-05-06 13:36 35.61224 139.85291 4184 ft 270 kts 98°
2026-05-06 13:36 35.61046 139.87628 4835 ft 281 kts 96°
2026-05-06 13:36 35.60969 139.90055 5686 ft 287 kts 94°
2026-05-06 13:37 35.61073 139.92480 6629 ft 284 kts 76°
2026-05-06 13:37 35.62020 139.94560 7538 ft 281 kts 41°
2026-05-06 13:37 35.63693 139.95709 8309 ft 275 kts 12°
2026-05-06 13:37 35.65552 139.96241 8945 ft 281 kts
2026-05-06 13:38 35.67507 139.96587 9524 ft 291 kts 358°
2026-05-06 13:38 35.69568 139.96692 10133 ft 301 kts 356°
2026-05-06 13:38 35.71733 139.96778 10474 ft 324 kts 357°
2026-05-06 13:38 35.74041 139.96698 10600 ft 337 kts 343°
2026-05-06 13:39 35.76269 139.95737 10832 ft 346 kts 332°
2026-05-06 13:39 35.78525 139.94579 11560 ft 356 kts 333°
2026-05-06 13:39 35.80839 139.93460 12525 ft 356 kts 334°
2026-05-06 13:39 35.83074 139.92408 13798 ft 337 kts 335°
2026-05-06 13:40 35.85879 139.91097 14853 ft 312 kts 334°
2026-05-06 13:40 35.87209 139.90471 15475 ft 306 kts 334°
2026-05-06 13:40 35.89242 139.89715 16175 ft 311 kts 348°
2026-05-06 13:40 35.91440 139.89742 16726 ft 320 kts
2026-05-06 13:41 35.93661 139.89978 17383 ft 321 kts
2026-05-06 13:41 35.95921 139.90220 17776 ft 334 kts
2026-05-06 13:41 35.98236 139.90453 17913 ft 354 kts
2026-05-06 13:41 36.00700 139.90674 18432 ft 360 kts 360°
2026-05-06 13:42 36.03188 139.90878 19198 ft 358 kts 358°
2026-05-06 13:42 36.05683 139.91082 19808 ft 361 kts 358°
2026-05-06 13:42 36.08213 139.91291 20325 ft 367 kts 357°
2026-05-06 13:42 36.10781 139.91509 20851 ft 373 kts 357°
2026-05-06 13:43 36.13384 139.91735 21452 ft 376 kts 356°
2026-05-06 13:43 36.16008 139.91967 22073 ft 380 kts 355°
2026-05-06 13:43 36.18659 139.92202 22647 ft 384 kts 355°
2026-05-06 13:43 36.21340 139.92439 23215 ft 389 kts 354°
2026-05-06 13:44 36.24027 139.92677 23790 ft 394 kts 354°
2026-05-06 13:44 36.26775 139.92922 24278 ft 399 kts 354°
2026-05-06 13:44 36.29558 139.93171 24772 ft 403 kts 354°
2026-05-06 13:44 36.32366 139.93423 25319 ft 406 kts 355°
2026-05-06 13:45 36.35189 139.93678 25851 ft 409 kts 354°
2026-05-06 13:45 36.40937 139.94190 26741 ft 420 kts 354°
2026-05-06 13:45 36.43865 139.94430 27185 ft 423 kts 352°
2026-05-06 13:46 36.46816 139.94576 27648 ft 426 kts 351°
2026-05-06 13:46 36.49746 139.94677 28095 ft 429 kts 350°
2026-05-06 13:46 36.52741 139.94772 28635 ft 432 kts 350°
2026-05-06 13:46 36.55753 139.94876 29097 ft 436 kts 349°
2026-05-06 13:47 36.58804 139.94989 29505 ft 441 kts 349°
2026-05-06 13:47 36.61889 139.95110 29898 ft 446 kts 349°
2026-05-06 13:47 36.65011 139.95239 30306 ft 451 kts 349°
2026-05-06 13:47 36.68159 139.95373 30694 ft 454 kts 349°
2026-05-06 13:48 36.71316 139.95510 31131 ft 455 kts 349°
2026-05-06 13:48 36.74515 139.95643 31157 ft 467 kts 349°
2026-05-06 13:48 36.77757 139.95774 31176 ft 478 kts 350°
2026-05-06 13:48 36.81123 139.95915 31179 ft 490 kts 350°
2026-05-06 13:49 36.88083 139.96354 31173 ft 515 kts 356°
2026-05-06 13:49 36.95167 139.98075 31152 ft 517 kts
2026-05-06 13:50 37.02150 139.99995 31149 ft 512 kts
2026-05-06 13:50 37.09076 140.01765 31180 ft 512 kts
2026-05-06 13:52 37.12549 140.02653 31155 ft 513 kts
2026-05-06 13:52 37.19571 140.04458 31590 ft 520 kts
2026-05-06 13:53 37.23100 140.05374 32085 ft 517 kts
2026-05-06 13:53 37.26626 140.06291 32144 ft 520 kts
2026-05-06 13:53 37.33703 140.08127 32136 ft 514 kts
2026-05-06 13:54 37.40648 140.09937 32145 ft 510 kts
2026-05-06 13:54 37.47642 140.11746 32141 ft 515 kts
2026-05-06 13:55 37.54584 140.13561 32138 ft 506 kts
2026-05-06 13:55 37.61439 140.15335 32140 ft 505 kts
2026-05-06 13:56 37.68357 140.17132 32143 ft 509 kts
2026-05-06 13:56 37.75298 140.18953 32134 ft 511 kts
2026-05-06 13:57 37.82199 140.20775 32136 ft 508 kts
2026-05-06 13:57 37.89085 140.22592 32126 ft 500 kts
2026-05-06 13:58 37.92467 140.23488 31778 ft 493 kts
2026-05-06 13:58 37.95804 140.24368 31296 ft 488 kts
2026-05-06 13:58 37.99009 140.25213 30801 ft 484 kts
2026-05-06 13:58 38.02137 140.26038 30317 ft 480 kts
2026-05-06 13:59 38.05389 140.26896 29718 ft 475 kts
2026-05-06 13:59 38.08609 140.27749 29107 ft 470 kts
2026-05-06 13:59 38.11746 140.28581 28548 ft 464 kts
2026-05-06 13:59 38.14875 140.29412 27987 ft 451 kts
2026-05-06 14:00 38.17893 140.30217 27435 ft 434 kts
2026-05-06 14:00 38.20794 140.30991 26947 ft 418 kts
2026-05-06 14:00 38.23590 140.31735 26444 ft 404 kts
2026-05-06 14:00 38.26302 140.32453 25978 ft 393 kts
2026-05-06 14:01 38.28947 140.33153 25524 ft 384 kts
2026-05-06 14:01 38.31550 140.33842 25082 ft 382 kts
2026-05-06 14:01 38.34142 140.34528 24669 ft 394 kts
2026-05-06 14:01 38.36894 140.35202 24174 ft 408 kts
2026-05-06 14:02 38.39726 140.35503 23676 ft 408 kts 358°
2026-05-06 14:02 38.42554 140.35396 23100 ft 404 kts 351°
2026-05-06 14:02 38.45329 140.35017 22582 ft 399 kts 350°
2026-05-06 14:02 38.48079 140.34615 22097 ft 396 kts 349°
2026-05-06 14:03 38.50806 140.34215 21623 ft 393 kts 349°
2026-05-06 14:03 38.53513 140.33825 21160 ft 390 kts 350°
2026-05-06 14:03 38.56200 140.33445 20702 ft 388 kts 350°
2026-05-06 14:03 38.58837 140.33076 20257 ft 385 kts 350°
2026-05-06 14:04 38.61496 140.32708 19818 ft 383 kts 350°
2026-05-06 14:04 38.64140 140.32344 19378 ft 382 kts 350°
2026-05-06 14:04 38.66777 140.31980 18935 ft 380 kts 350°
2026-05-06 14:04 38.69407 140.31617 18485 ft 380 kts 350°
2026-05-06 14:05 38.72030 140.31256 18006 ft 379 kts 350°
2026-05-06 14:05 38.74645 140.30895 17542 ft 377 kts 350°
2026-05-06 14:05 38.77213 140.30540 17097 ft 376 kts 350°
2026-05-06 14:05 38.79812 140.30181 16659 ft 374 kts 350°
2026-05-06 14:06 38.82392 140.29825 16228 ft 373 kts 350°
2026-05-06 14:06 38.84968 140.29469 15791 ft 371 kts 350°
2026-05-06 14:06 38.87532 140.29113 15352 ft 370 kts 350°
2026-05-06 14:06 38.90089 140.28748 14928 ft 369 kts 350°
2026-05-06 14:07 38.92637 140.28379 14481 ft 369 kts 349°
2026-05-06 14:07 38.95188 140.28010 14029 ft 369 kts 349°
2026-05-06 14:07 38.97735 140.27638 13518 ft 368 kts 349°
2026-05-06 14:07 39.00238 140.27274 13075 ft 366 kts 350°
2026-05-06 14:08 39.02763 140.26930 12645 ft 363 kts 350°
2026-05-06 14:08 39.05265 140.26594 12244 ft 360 kts 350°
2026-05-06 14:08 39.07735 140.26264 11825 ft 355 kts 350°
2026-05-06 14:08 39.10161 140.25936 11490 ft 341 kts 350°
2026-05-06 14:09 39.12434 140.25627 11038 ft 317 kts 349°
2026-05-06 14:09 39.14548 140.25342 10658 ft 294 kts 349°
2026-05-06 14:09 39.16561 140.25067 10361 ft 290 kts 349°
2026-05-06 14:09 39.18562 140.24792 10049 ft 289 kts 349°
2026-05-06 14:10 39.20529 140.24513 9696 ft 288 kts 349°
2026-05-06 14:10 39.22517 140.24233 9361 ft 287 kts 349°
2026-05-06 14:10 39.24487 140.23964 9037 ft 284 kts 349°
2026-05-06 14:10 39.26446 140.23694 8749 ft 282 kts 349°
2026-05-06 14:11 39.28383 140.23588 8403 ft 279 kts
2026-05-06 14:11 39.30207 140.24512 8052 ft 286 kts 27°
2026-05-06 14:11 39.31932 140.25860 7627 ft 292 kts 27°
2026-05-06 14:11 39.33681 140.27199 7312 ft 293 kts 27°
2026-05-06 14:12 39.35411 140.28522 7045 ft 292 kts 27°
2026-05-06 14:12 39.37142 140.29839 6892 ft 289 kts 26°
2026-05-06 14:12 39.38889 140.31164 6514 ft 293 kts 26°
2026-05-06 14:12 39.40651 140.32500 6192 ft 293 kts 27°
2026-05-06 14:13 39.42376 140.33807 5851 ft 282 kts 27°
2026-05-06 14:13 39.44036 140.35072 5533 ft 275 kts 27°
2026-05-06 14:13 39.45687 140.36328 5244 ft 273 kts 27°
2026-05-06 14:13 39.47280 140.37536 4918 ft 258 kts 28°
2026-05-06 14:14 39.48776 140.38664 4646 ft 250 kts 27°
2026-05-06 14:14 39.50272 140.39803 4422 ft 248 kts 27°
2026-05-06 14:14 39.51767 140.40786 4254 ft 231 kts 11°
2026-05-06 14:14 39.53287 140.41088 4218 ft 213 kts
2026-05-06 14:15 39.54777 140.41279 3803 ft 221 kts
2026-05-06 14:15 39.56302 140.41479 3363 ft 217 kts
2026-05-06 14:15 39.57764 140.41619 3142 ft 206 kts 348°
2026-05-06 14:15 39.58959 140.40882 2943 ft 182 kts 306°
2026-05-06 14:16 39.59538 140.39491 2791 ft 176 kts 287°
2026-05-06 14:16 39.59921 140.37973 2551 ft 181 kts 280°
2026-05-06 14:16 39.60214 140.36379 2336 ft 182 kts 279°
2026-05-06 14:16 39.60406 140.34796 2063 ft 172 kts 275°
2026-05-06 14:17 39.60536 140.33328 1886 ft 161 kts 273°
2026-05-06 14:17 39.60668 140.31868 1656 ft 166 kts 274°
2026-05-06 14:17 39.60795 140.30440 1425 ft 152 kts 275°
2026-05-06 14:17 39.60911 140.29154 1233 ft 137 kts 274°
2026-05-06 14:18 39.61019 140.27933 1123 ft 139 kts 275°
2026-05-06 14:18 39.61130 140.26681 827 ft 142 kts 276°
2026-05-06 14:18 39.61243 140.25467 659 ft 134 kts 277°
2026-05-06 14:18 39.61350 140.24248 486 ft 137 kts 277°
2026-05-06 14:19 39.61461 140.23021 327 ft 138 kts 277°
2026-05-06 14:19 39.61559 140.21938 313 ft 93 kts 277°
2026-05-06 14:19 39.61606 140.21389 314 ft 41 kts 277°
2026-05-06 14:19 39.61633 140.21094 317 ft 25 kts 269°
2026-05-06 14:20 39.61520 140.21002 318 ft 21 kts 176°
2026-05-06 14:20 39.61462 140.21153 315 ft 21 kts 96°
2026-05-06 14:20 39.61445 140.21342 317 ft 21 kts 97°
2026-05-06 14:20 39.61426 140.21530 312 ft 21 kts 97°
2026-05-06 14:21 39.61409 140.21718 312 ft 21 kts 96°
2026-05-06 14:21 39.61391 140.21893 315 ft 17 kts 108°
2026-05-06 14:21 39.61302 140.21932 318 ft 10 kts 186°
2026-05-06 14:21 39.61268 140.21927 318 ft 2 kts 186°
2026-05-06 14:22 39.61259 140.21926 318 ft 1 kts 186°
2026-05-06 14:22 39.61258 140.21925 317 ft 0 kts 186°